GW3853 Weather Reports


time (UTC)temp
C
wind
direction
speed
KPH
gust
KPH
rain 1hr
cm
rain 24hr
cm
rain mn
cm
humidity
%
barometer
mb
20260507071548 7 359 3.2 6.4 0.00 1.24 0.15 91 1005.8
20260507070020 7 14 1.6 4.8 0.00 1.24 0.15 92 1005.6
20260507064522 7 42 0.0 3.2 0.00 1.24 0.15 94 1005.4
20260507063012 7 63 3.2 11.3 0.00 1.24 0.15 92 1005.2
20260507061503 7 1 1.6 6.4 0.00 1.24 0.15 95 1005.2
20260507060004 7 30 0.0 3.2 0.00 1.24 0.15 95 1005.2
20260507054504 8 30 0.0 3.2 0.05 1.24 0.15 95 1004.8
20260507053013 8 30 0.0 3.2 0.10 1.24 0.15 95 1004.7
20260507051527 8 75 0.0 3.2 0.13 1.24 0.15 95 1005.1
20260507050003 8 354 1.6 6.4 0.15 1.24 0.15 94 1005.0
20260507044505 8 250 0.0 9.7 0.10 1.19 0.10 94 1005.0
20260507043011 8 15 1.6 6.4 0.08 1.14 0.05 93 1005.3
20260507041512 8 2 3.2 11.3 0.13 1.12 0.03 93 1005.3
20260507040017 9 1 0.0 8.0 0.18 1.09 0.00 94 1005.2
20260507034532 9 326 3.2 8.0 0.20 1.09 1.09 93 1005.2
20260507033014 10 51 1.6 6.4 0.18 1.07 1.07 94 1005.0
20260507031508 10 96 0.0 8.0 0.10 0.99 0.99 95 1004.6
20260507030024 11 1 1.6 9.7 0.03 0.91 0.91 94 1004.5
20260507024517 11 143 0.0 3.2 0.03 0.89 0.89 95 1004.3
20260507023026 11 107 0.0 3.2 0.05 0.89 0.89 95 1004.0
20260507021506 11 244 0.0 4.8 0.15 0.89 0.89 95 1004.2
20260507020017 11 340 0.0 4.8 0.15 0.89 0.89 95 1004.1
20260507014516 12 359 0.0 6.4 0.13 0.86 0.86 96 1004.2
20260507013021 12 160 0.0 3.2 0.10 0.84 0.84 97 1004.4
20260507011507 12 4 1.6 3.2 0.00 0.74 0.74 97 1004.3
20260507010016 12 188 0.0 3.2 0.03 0.74 0.74 97 1004.0
20260507004514 12 136 1.6 4.8 0.03 0.74 0.74 97 1004.0
20260507003021 12 241 0.0 4.8 0.03 0.74 0.74 97 1004.0
20260507001524 12 145 1.6 4.8 0.08 0.74 0.74 97 1004.0
20260507000012 12 133 1.6 8.0 0.05 0.71 0.71 97 1004.0
20260506234511 12 124 0.0 4.8 0.05 0.71 0.71 96 1003.9
20260506233016 12 221 1.6 3.2 0.08 0.71 0.71 96 1004.3
20260506231520 12 140 0.0 3.2 0.03 0.66 0.66 96 1004.3
20260506230023 12 172 1.6 4.8 0.03 0.71 0.66 96 1004.5
20260506224510 12 151 0.0 4.8 0.05 0.74 0.66 96 1004.6
20260506223013 12 75 0.0 6.4 0.03 0.71 0.64 96 1004.8
20260506221520 12 187 1.6 4.8 0.03 0.71 0.64 96 1004.9
20260506220033 12 141 1.6 6.4 0.05 0.71 0.64 96 1005.1
20260506214527 13 127 1.6 3.2 0.08 0.69 0.61 96 1005.1
20260506213013 13 176 0.0 3.2 0.10 0.69 0.61 96 1005.2
20260506211516 13 342 0.0 3.2 0.15 0.69 0.61 96 1005.2
20260506210007 12 212 1.6 6.4 0.15 0.66 0.58 96 1005.1
20260506204508 12 121 1.6 4.8 0.10 0.61 0.53 96 1004.9
20260506203019 12 176 1.6 4.8 0.13 0.58 0.51 95 1005.2
20260506201514 13 134 1.6 3.2 0.10 0.53 0.46 95 1005.4
20260506200022 13 143 0.0 3.2 0.13 0.51 0.43 95 1005.6
20260506194505 13 125 0.0 4.8 0.20 0.51 0.43 94 1005.8
20260506193008 13 359 0.0 3.2 0.25 0.46 0.38 94 1006.0
20260506191514 13 65 0.0 4.8 0.28 0.43 0.36 93 1005.7
20260506190023 13 165 0.0 3.2 0.25 0.38 0.30 93 1006.0
20260506184504 14 8 0.0 3.2 0.20 0.30 0.23 92 1006.1
20260506183006 14 293 0.0 3.2 0.10 0.20 0.13 91 1006.2
20260506181512 14 147 0.0 3.2 0.05 0.15 0.08 90 1006.3
20260506180016 15 185 0.0 3.2 0.03 0.13 0.05 88 1006.4
20260506174519 15 162 0.0 3.2 0.00 0.10 0.03 88 1006.5
20260506173005 15 129 0.0 3.2 0.00 0.10 0.03 86 1006.8
20260506171508 15 158 0.0 3.2 0.00 0.10 0.03 85 1007.0
20260506170014 15 186 1.6 3.2 0.03 0.10 0.03 86 1007.4
20260506164518 14 196 0.0 6.4 0.03 0.10 0.03 88 1007.6
20260506163022 13 115 1.6 3.2 0.03 0.10 0.03 90 1007.6
20260506161506 14 162 0.0 3.2 0.03 0.10 0.03 88 1008.2
20260506160014 14 162 0.0 3.2 0.00 0.08 0.00 84 1008.6
20260506154520 14 176 0.0 3.2 0.00 0.08 0.00 82 1008.8
20260506151523 13 358 0.0 3.2 0.00 0.08 0.00 82 1008.6
20260506150008 13 166 0.0 3.2 0.00 0.08 0.00 83 1008.6
20260506144520 13 131 0.0 4.8 0.00 0.08 0.00 84 1008.3
20260506143025 13 193 1.6 4.8 0.00 0.08 0.00 83 1008.4
20260506141532 13 121 1.6 3.2 0.00 0.08 0.00 84 1008.7
20260506140024 13 219 0.0 4.8 0.00 0.08 0.00 85 1009.0
20260506134511 12 129 1.6 3.2 0.00 0.08 0.00 85 1009.0
20260506133017 12 82 1.6 3.2 0.00 0.08 0.00 85 1008.8
20260506131524 12 89 0.0 3.2 0.00 0.08 0.00 85 1008.8
20260506130024 12 89 0.0 3.2 0.00 0.08 0.00 85 1008.9
20260506124525 12 113 1.6 3.2 0.00 0.08 0.00 86 1009.1
20260506123015 12 179 0.0 3.2 0.00 0.08 0.00 86 1009.4
20260506121503 12 228 0.0 3.2 0.00 0.08 0.00 87 1009.5
20260506120013 12 159 0.0 3.2 0.00 0.08 0.00 87 1009.7
20260506114508 12 139 1.6 3.2 0.00 0.08 0.00 87 1009.5
20260506113012 11 203 0.0 0.0 0.00 0.08 0.00 89 1009.6
20260506111516 11 138 0.0 1.6 0.00 0.08 0.00 89 1009.6
20260506110029 -17 0.0 0.0 0.00 0.08 0.00 1009.5
20260506104529 -17 0.0 0.0 0.00 0.08 0.00 1009.7
20260506103029 -17 0.0 0.0 0.00 0.08 0.00 1009.5
20260506101525 -17 0.0 0.0 0.00 0.08 0.00 1009.4
20260506100027 -17 0.0 0.0 0.00 0.08 0.00 1009.6
20260506094530 -17 0.0 0.0 0.00 0.08 0.00 1009.6
20260506093033 -17 0.0 0.0 0.00 0.08 0.00 1009.4
20260506091531 -17 0.0 0.0 0.00 0.08 0.00 1009.2
20260506090028 -17 0.0 0.0 0.00 0.08 0.00 1009.1
20260506081521 11 324 0.0 0.0 0.00 0.08 0.00 94 1009.4
20260506073025 11 324 0.0 0.0 0.00 0.08 0.00 94 1009.1